Location: Madingley
(52.2167°N, 0.0500°E)
Time: 07:25:10
(UTC+00:00)

Cosmos 2322 - Pass Details

Date: 15 May 2026
Orbit: 839 x 853 km, 71.0° (Epoch: 5 June)

Event Time Altitude Azimuth Distance (km) Brightness Sun altitude
Rises 23:32:18 0° 325° (NW) 3,427 7.9 -18.5°
Reaches altitude 10° 23:34:54 10° 317° (NW) 2,485 6.9 -18.6°
Maximum altitude 23:40:06 38° 252° (WSW) 1,281 4.5 -18.6°
Enters shadow 23:42:15 28° 209° (SSW) 1,552 4.6 -18.7°
